Location: Lac Echo
(45.9375°N, 75.4580°W)
Time: 11:49:14
(UTC-04:00)

Amateur Radio Satellites - All Passes

Search period start: 23 October 2014 11:19
Search period end: 24 October 2014 11:19
Location: Lac Echo, 45.9375°N, 75.4580°W

Satellite Date Start Highest point End Downlink Frequencies (MHz)
Time Altitude Azimuth
Sapphire 23 Oct 11:47:34 11:51:25 19° 36° (NE) 11:55:16 437.095 MHz 1200 baud AX-25 AFSK
HO-68 23 Oct 11:49:30 11:55:34 31° 303° (WNW) 12:01:38 435.675 MHz FM
ZACube-1 23 Oct 11:56:49 12:01:00 51° 288° (WNW) 12:05:04 437.345 MHz
Oscar 19 23 Oct 12:00:48 12:03:14 14° 56° (NE) 12:05:39 437.125 CW, 437.150 USB
JAS-1B 23 Oct 12:05:41 12:08:45 15° 54° (NE) 12:11:47 435.800 - 435.900 CW/SSB
UKube-1 23 Oct 12:06:02 12:09:15 20° 297° (WNW) 12:12:27 145.840 MHz, 145.915 MHz
PCSat 23 Oct 12:10:02 12:14:36 26° 42° (NE) 12:19:08 145.825 MHz
KITSAT 1 23 Oct 12:26:11 12:33:42 45° 112° (ESE) 12:41:15 435.175 FM
FUNcube-1 23 Oct 12:42:51 12:45:54 19° 297° (WNW) 12:48:54 145.950 - 145.970 MHz USB
Oscar 16 23 Oct 12:43:44 12:48:12 31° 65° (ENE) 12:52:41 437.025 USB, Beacon 2401.1428
AO-Echo 23 Oct 12:53:20 12:56:47 19° 60° (ENE) 13:00:19 ?
Uribyol 2 23 Oct 13:01:08 13:04:57 21° 60° (ENE) 13:08:47 436.500 FM
ITAMSAT 1 23 Oct 13:06:37 13:10:31 22° 61° (ENE) 13:14:27 435.822 SSB
Gurwin Techsat 1B 23 Oct 13:17:51 13:20:54 16° 57° (ENE) 13:23:58 435.225 FM
Sapphire 23 Oct 13:30:14 13:35:43 81° 57° (ENE) 13:41:09 437.095 MHz 1200 baud AX-25 AFSK
TMSAT-1 23 Oct 13:30:19 13:33:15 15° 56° (ENE) 13:36:10 436.925 FM
Oscar 19 23 Oct 13:36:37 13:41:47 83° 74° (ENE) 13:46:57 437.125 CW, 437.150 USB
SO-50 23 Oct 13:42:58 13:47:21 56° 121° (ESE) 13:51:54 436.795 FM
AO-27 23 Oct 13:50:24 13:55:25 50° 69° (ENE) 14:00:28 436.795 MHz FM
JAS-1B 23 Oct 13:52:42 13:58:42 90° 73° (ENE) 14:04:24 435.800 - 435.900 CW/SSB
PCSat 23 Oct 13:53:05 13:58:28 65° 242° (WSW) 14:03:48 145.825 MHz
ISS 23 Oct 14:01:01 14:04:14 47° 145° (SE) 14:07:28 145.800 FM
Oscar 10/S400 23 Oct 14:16:09 14:32:24 33° 152° (SSE) 14:55:04 145.825 - 145.975 CW/USB, Beacon 145.810 USB
KITSAT 1 23 Oct 14:21:11 14:29:02 52° 314° (NW) 14:36:55 435.175 FM
Oscar 16 23 Oct 14:22:38 14:27:26 39° 263° (W) 14:32:16 437.025 USB, Beacon 2401.1428
AO-Echo 23 Oct 14:30:14 14:35:03 62° 259° (W) 14:40:05 ?
AO-7 23 Oct 14:34:47 14:41:26 28° 51° (NE) 14:48:07 29.400 - 29.500 MHz
Uribyol 2 23 Oct 14:38:49 14:43:58 62° 258° (WSW) 14:49:11 436.500 FM
ITAMSAT 1 23 Oct 14:44:29 14:49:36 58° 259° (W) 14:54:47 435.822 SSB
Gurwin Techsat 1B 23 Oct 14:54:50 15:00:09 87° 255° (WSW) 15:05:31 435.225 FM
TMSAT-1 23 Oct 15:07:06 15:12:25 90° 75° (ENE) 15:17:46 436.925 FM
Saudisat 1A 23 Oct 15:14:30 15:17:38 19° 34° (NE) 15:20:45 436.775 MHz
Sapphire 23 Oct 15:15:11 15:18:26 16° 256° (WSW) 15:21:42 437.095 MHz 1200 baud AX-25 AFSK
UOSAT-12 23 Oct 15:15:14 15:19:39 45° 119° (ESE) 15:24:09 437.025 FM, 437.400 FM
Oscar 19 23 Oct 15:19:17 15:21:46 14° 272° (W) 15:24:16 437.125 CW, 437.150 USB
SO-50 23 Oct 15:24:24 15:28:14 26° 322° (NW) 15:32:10 436.795 FM
AO-27 23 Oct 15:31:03 15:35:11 24° 267° (W) 15:39:22 436.795 MHz FM
JAS-2 23 Oct 15:33:00 15:35:22 12° 46° (NE) 15:37:48 435.800 - 435.900 CW/SSB, 435.910 FM
ISS 23 Oct 15:37:48 15:40:59 41° 344° (NNW) 15:44:12 145.800 FM
JAS-1B 23 Oct 15:47:58 15:50:15 12° 273° (W) 15:52:29 435.800 - 435.900 CW/SSB
Uosat F 23 Oct 16:13:35 16:18:32 62° 71° (ENE) 16:23:31 435.120 FM
KITSAT 1 23 Oct 16:20:36 16:26:32 22° 340° (NNW) 16:32:29 435.175 FM
AO-7 23 Oct 16:25:09 16:33:26 81° 252° (WSW) 16:41:47 29.400 - 29.500 MHz
Gurwin Techsat 1B 23 Oct 16:38:48 16:40:54 12° 273° (W) 16:43:00 435.225 FM
Hamsat 23 Oct 16:49:12 16:52:00 18° 63° (ENE) 16:54:48 145.90 MHz
TMSAT-1 23 Oct 16:50:46 16:53:05 13° 273° (W) 16:55:24 436.925 FM
Saudisat 1A 23 Oct 16:53:21 16:57:48 86° 235° (SW) 17:02:13 436.775 MHz
UOSAT-12 23 Oct 16:55:49 16:59:58 31° 319° (NW) 17:04:11 437.025 FM, 437.400 FM
JAS-2 23 Oct 17:12:59 17:18:47 56° 68° (ENE) 17:25:24 435.800 - 435.900 CW/SSB, 435.910 FM
ISS 23 Oct 17:15:13 17:18:13 30° 4° (N) 17:21:13 145.800 FM
OPAL 23 Oct 17:47:49 17:52:17 32° 98° (E) 17:56:41 ?
Uosat F 23 Oct 17:54:21 17:57:45 18° 269° (W) 18:01:10 435.120 FM
KITSAT 1 23 Oct 18:20:02 18:25:27 19° 11° (N) 18:30:51 435.175 FM
AO-7 23 Oct 18:22:24 18:27:30 17° 272° (W) 18:32:38 29.400 - 29.500 MHz
Hamsat 23 Oct 18:23:31 18:27:36 49° 261° (W) 18:31:42 145.90 MHz
Saudisat 1A 23 Oct 18:35:32 18:36:38 11° 252° (WSW) 18:37:45 436.775 MHz
UOSAT-12 23 Oct 18:40:51 18:41:38 10° 342° (NNW) 18:42:26 437.025 FM, 437.400 FM
HO-68 23 Oct 18:49:00 18:52:36 15° 46° (NE) 18:56:13 435.675 MHz FM
ISS 23 Oct 18:52:00 18:55:19 63° 24° (NNE) 18:58:38 145.800 FM
JAS-2 23 Oct 18:59:25 19:04:22 27° 271° (W) 19:09:51 435.800 - 435.900 CW/SSB, 435.910 FM
SO-67 23 Oct 19:01:26 19:04:48 56° 74° (ENE) 19:08:12 435.3500 MHz FM
OPAL 23 Oct 19:26:41 19:31:10 35° 296° (WNW) 19:35:37 ?
STRAND 1 23 Oct 19:29:40 19:34:32 41° 98° (E) 19:39:22 ?
KITSAT 1 23 Oct 20:16:05 20:23:32 38° 39° (NE) 20:30:56 435.175 FM
AO-40 23 Oct 20:17:08 23:13:58 23° 125° (SE) 00:33:12 Beacon 2401.320
ISS 23 Oct 20:29:03 20:31:48 24° 222° (SW) 20:34:33 145.800 FM
HO-68 23 Oct 20:31:54 20:38:54 61° 67° (ENE) 20:45:57 435.675 MHz FM
SO-50 23 Oct 20:32:11 20:35:51 21° 35° (NE) 20:39:34 436.795 FM
Oscar 11 23 Oct 20:35:28 20:38:01 16° 61° (ENE) 20:40:34 145.825 FM, Beacon 2401.500 USB
STRAND 1 23 Oct 21:09:09 21:13:34 29° 296° (WNW) 21:17:58 ?
ZACube-1 23 Oct 21:20:09 21:23:31 21° 64° (ENE) 21:26:51 437.345 MHz
UKube-1 23 Oct 21:26:44 21:30:58 55° 71° (ENE) 21:35:15 145.840 MHz, 145.915 MHz
UOSAT-12 23 Oct 22:03:03 22:06:17 18° 32° (NNE) 22:09:30 437.025 FM, 437.400 FM
FUNcube-1 23 Oct 22:03:53 22:08:20 52° 72° (ENE) 22:12:44 145.950 - 145.970 MHz USB
Oscar 11 23 Oct 22:09:26 22:13:44 62° 259° (W) 22:18:02 145.825 FM, Beacon 2401.500 USB
KITSAT 1 23 Oct 22:11:29 22:19:30 68° 242° (WSW) 22:27:28 435.175 FM
SO-50 23 Oct 22:12:09 22:17:01 83° 235° (SW) 22:21:54 436.795 FM
RS-15 23 Oct 22:16:16 22:26:31 48° 112° (ESE) 22:36:43 29.354 - 29.394 USB, Beacon 29.352 USB
HO-68 23 Oct 22:20:56 22:27:01 30° 266° (W) 22:33:10 435.675 MHz FM
ZACube-1 23 Oct 22:55:08 22:59:35 49° 261° (W) 23:04:01 437.345 MHz
UKube-1 23 Oct 23:04:50 23:07:31 16° 269° (W) 23:10:12 145.840 MHz, 145.915 MHz
FUNcube-1 23 Oct 23:41:48 23:44:59 18° 269° (W) 23:48:09 145.950 - 145.970 MHz USB
UOSAT-12 23 Oct 23:42:28 23:47:13 78° 53° (NE) 23:51:53 437.025 FM, 437.400 FM
SO-50 23 Oct 23:54:59 23:56:50 12° 253° (WSW) 23:58:41 436.795 FM
MaSat-1 23 Oct 23:55:59 23:59:40 31° 112° (ESE) 00:03:03 437.345 MHz
KITSAT 1 24 Oct 00:09:40 00:13:22 14° 262° (W) 00:17:05 435.175 FM
RS-15 24 Oct 00:27:52 00:38:39 60° 316° (NW) 00:49:31 29.354 - 29.394 USB, Beacon 29.352 USB
UOSAT-12 24 Oct 01:24:06 01:26:45 15° 251° (WSW) 01:29:22 437.025 FM, 437.400 FM
MaSat-1 24 Oct 01:31:54 01:35:20 26° 306° (NW) 01:38:29 437.345 MHz
JAS-1B 24 Oct 01:32:55 01:37:58 22° 93° (E) 01:43:36 435.800 - 435.900 CW/SSB
Oscar 19 24 Oct 01:46:22 01:50:30 24° 93° (E) 01:54:36 437.125 CW, 437.150 USB
AO-27 24 Oct 02:02:26 02:05:16 15° 88° (E) 02:08:05 436.795 MHz FM
Oscar 16 24 Oct 02:31:21 02:36:26 62° 101° (ESE) 02:41:30 437.025 USB, Beacon 2401.1428
AO-Echo 24 Oct 02:34:49 02:39:45 37° 97° (E) 02:44:39 ?
RS-15 24 Oct 02:44:33 02:53:51 30° 348° (NNW) 03:03:18 29.354 - 29.394 USB, Beacon 29.352 USB
Uribyol 2 24 Oct 02:49:11 02:54:05 39° 98° (E) 02:58:55 436.500 FM
ITAMSAT 1 24 Oct 02:54:55 02:59:52 42° 98° (E) 03:04:47 435.822 SSB
PCSat 24 Oct 02:58:42 02:59:47 11° 101° (E) 03:00:52 145.825 MHz
Gurwin Techsat 1B 24 Oct 03:08:56 03:13:38 31° 95° (E) 03:18:19 435.225 FM
TMSAT-1 24 Oct 03:20:52 03:25:31 30° 95° (E) 03:30:07 436.925 FM
JAS-1B 24 Oct 03:22:34 03:29:00 74° 288° (WNW) 03:36:42 435.800 - 435.900 CW/SSB
Oscar 19 24 Oct 03:25:10 03:30:04 47° 291° (WNW) 03:34:57 437.125 CW, 437.150 USB
OPAL 24 Oct 03:29:33 03:31:53 13° 53° (NE) 03:34:13 ?
AO-27 24 Oct 03:40:09 03:45:24 80° 286° (WNW) 03:50:37 436.795 MHz FM
Oscar 16 24 Oct 04:11:40 04:15:21 20° 300° (WNW) 04:19:01 437.025 USB, Beacon 2401.1428
AO-Echo 24 Oct 04:13:43 04:18:26 33° 294° (WNW) 04:23:09 ?
Sapphire 24 Oct 04:14:30 04:19:37 45° 114° (ESE) 04:24:46 437.095 MHz 1200 baud AX-25 AFSK
Uosat F 24 Oct 04:20:11 04:23:10 16° 90° (E) 04:26:08 435.120 FM
AO-7 24 Oct 04:24:25 04:31:31 30° 94° (E) 04:38:35 29.400 - 29.500 MHz
Uribyol 2 24 Oct 04:28:54 04:33:26 31° 296° (WNW) 04:37:56 436.500 FM
ITAMSAT 1 24 Oct 04:34:44 04:39:12 29° 296° (WNW) 04:43:39 435.822 SSB
PCSat 24 Oct 04:36:49 04:42:12 73° 119° (ESE) 04:47:38 145.825 MHz
Gurwin Techsat 1B 24 Oct 04:48:45 04:53:40 39° 293° (WNW) 04:58:34 435.225 FM
RS-15 24 Oct 05:00:34 05:10:23 35° 23° (NNE) 05:20:28 29.354 - 29.394 USB, Beacon 29.352 USB
TMSAT-1 24 Oct 05:00:35 05:05:32 41° 293° (WNW) 05:10:27 436.925 FM
OPAL 24 Oct 05:04:50 05:09:59 79° 71° (ENE) 05:15:05 ?
STRAND 1 24 Oct 05:12:44 05:14:42 12° 54° (NE) 05:16:41 ?
JAS-1B 24 Oct 05:15:20 05:18:52 15° 306° (NW) 05:22:40 435.800 - 435.900 CW/SSB
AO-27 24 Oct 05:21:41 05:24:05 13° 305° (NW) 05:26:28 436.795 MHz FM
Uosat F 24 Oct 05:57:25 06:02:29 72° 287° (WNW) 06:07:30 435.120 FM
Sapphire 24 Oct 05:58:16 06:03:11 34° 314° (NW) 06:08:08 437.095 MHz 1200 baud AX-25 AFSK
JAS-2 24 Oct 06:03:28 06:10:54 47° 97° (E) 06:18:23 435.800 - 435.900 CW/SSB, 435.910 FM
Hamsat 24 Oct 06:06:59 06:10:22 23° 94° (E) 06:13:45 145.90 MHz
AO-7 24 Oct 06:16:39 06:24:53 68° 294° (WNW) 06:33:07 29.400 - 29.500 MHz
PCSat 24 Oct 06:21:48 06:26:10 24° 320° (NW) 06:30:34 145.825 MHz
OPAL 24 Oct 06:46:37 06:49:25 15° 269° (W) 06:52:13 ?
STRAND 1 24 Oct 06:47:54 06:53:01 75° 73° (ENE) 06:58:11 ?
Saudisat 1A 24 Oct 07:04:20 07:06:23 13° 109° (ESE) 07:08:26 436.775 MHz
RS-15 24 Oct 07:13:35 07:24:46 78° 51° (NE) 07:36:24 29.354 - 29.394 USB, Beacon 29.352 USB
Uosat F 24 Oct 07:38:46 07:40:22 11° 306° (NW) 07:41:58 435.120 FM
Hamsat 24 Oct 07:42:36 07:46:24 34° 291° (WNW) 07:50:12 145.90 MHz
Sapphire 24 Oct 07:47:01 07:48:21 11° 338° (NNW) 07:49:41 437.095 MHz 1200 baud AX-25 AFSK
JAS-2 24 Oct 07:48:39 07:55:49 45° 295° (WNW) 08:03:07 435.800 - 435.900 CW/SSB, 435.910 FM
SO-67 24 Oct 07:55:07 07:58:28 46° 99° (E) 08:01:48 435.3500 MHz FM
AO-7 24 Oct 08:10:55 08:16:15 19° 316° (NW) 08:21:35 29.400 - 29.500 MHz
STRAND 1 24 Oct 08:29:51 08:32:47 15° 271° (W) 08:35:44 ?
Saudisat 1A 24 Oct 08:40:56 08:45:19 80° 307° (NW) 08:49:46 436.775 MHz
RS-15 24 Oct 09:26:44 09:36:10 34° 254° (WSW) 09:45:59 29.354 - 29.394 USB, Beacon 29.352 USB
SO-67 24 Oct 09:29:29 09:31:04 13° 296° (WNW) 09:32:39 435.3500 MHz FM
JAS-2 24 Oct 09:36:55 09:39:01 11° 316° (NW) 09:41:08 435.800 - 435.900 CW/SSB, 435.910 FM
MaSat-1 24 Oct 09:39:40 09:42:21 68° 244° (WSW) 09:44:48 437.345 MHz
HO-68 24 Oct 09:44:21 09:51:20 49° 100° (E) 09:58:14 435.675 MHz FM
Oscar 11 24 Oct 09:55:18 09:58:29 20° 92° (E) 10:01:39 145.825 FM, Beacon 2401.500 USB
Saudisat 1A 24 Oct 10:22:45 10:25:36 17° 328° (NNW) 10:28:28 436.775 MHz
ZACube-1 24 Oct 10:42:23 10:46:01 26° 94° (E) 10:49:33 437.345 MHz
UKube-1 24 Oct 10:48:23 10:52:47 73° 103° (ESE) 10:57:08 145.840 MHz, 145.915 MHz
KITSAT 1 24 Oct 10:52:46 10:55:49 13° 97° (E) 10:58:52 435.175 FM
